When you browse on this site, cookies collect data to enhance your experience and personalize the content and advertising you see.
Visit our Privacy Policy to learn more. By continuing to use the site, you agree to this use of cookies and data.
  • In Deutschland
  • Länderverzeichnis
  • Für 7 Tage
  • Wassertemperatur
  • Satellitenkarten
  • Wetterkarte
  • Widgets
  • user-avatar
    Anmelden

    Stündliche Wetter Jerusalem

    Heute, 19 November, Montag

    Zeit Temperatur Niederschläge Wind Luftdruck Luftfeuchtigkeit
    00:00 +17°C° 0 mm 3 m/S 695 mmHg 35%
    01:00 +17°C° 0 mm 2 m/S 695 mmHg 37%
    02:00 +17°C° 0 mm 2 m/S 694 mmHg 41%
    03:00 +17°C° 0 mm 2 m/S 694 mmHg 42%
    04:00 +16°C° 0 mm 3 m/S 695 mmHg 43%
    05:00 +16°C° 0 mm 3 m/S 695 mmHg 44%
    06:00 +17°C° 0.1 mm 3 m/S 695 mmHg 43%
    07:00 +17°C° 0.1 mm 3 m/S 695 mmHg 42%
    08:00 +17°C° 0 mm 2 m/S 695 mmHg 45%
    09:00 +18°C° 0 mm 2 m/S 696 mmHg 43%
    10:00 +19°C° 0 mm 2 m/S 696 mmHg 40%
    11:00 +20°C° 0 mm 2 m/S 696 mmHg 38%
    12:00 +22°C° 0 mm 1 m/S 696 mmHg 38%
    13:00 +22°C° 0 mm 1 m/S 696 mmHg 38%
    14:00 +22°C° 0 mm 1 m/S 696 mmHg 40%
    15:00 +21°C° 0 mm 1 m/S 696 mmHg 43%
    16:00 +21°C° 0 mm 1 m/S 696 mmHg 45%
    17:00 +20°C° 0 mm 1 m/S 697 mmHg 48%
    18:00 +20°C° 0 mm 1 m/S 697 mmHg 51%
    19:00 +19°C° 0 mm 1 m/S 697 mmHg 53%
    20:00 +19°C° 0 mm 1 m/S 697 mmHg 56%
    21:00 +18°C° 0 mm 1 m/S 697 mmHg 58%
    22:00 +16°C° 0 mm 0 m/S 697 mmHg 60%
    23:00 +15°C° 0 mm 0 m/S 697 mmHg 62%

    Morgen, 20 November, Dienstag

    Zeit Temperatur Niederschläge Wind Luftdruck Luftfeuchtigkeit
    00:00 +15°C° 0 mm 0 m/S 697 mmHg 63%
    01:00 +15°C° 0 mm 0 m/S 697 mmHg 64%
    02:00 +15°C° 0 mm 1 m/S 697 mmHg 65%
    03:00 +15°C° 0 mm 1 m/S 697 mmHg 65%
    04:00 +15°C° 0 mm 1 m/S 698 mmHg 65%
    05:00 +14°C° 0 mm 1 m/S 698 mmHg 65%
    06:00 +15°C° 0 mm 1 m/S 698 mmHg 61%
    07:00 +16°C° 0 mm 1 m/S 698 mmHg 57%
    08:00 +18°C° 0 mm 1 m/S 699 mmHg 53%
    09:00 +19°C° 0 mm 1 m/S 699 mmHg 49%
    10:00 +20°C° 0 mm 1 m/S 699 mmHg 45%
    11:00 +19°C° 0 mm 0 m/S 700 mmHg 41%
    12:00 +21°C° 0 mm 1 m/S 699 mmHg 40%
    13:00 +22°C° 0 mm 1 m/S 699 mmHg 40%
    14:00 +22°C° 0 mm 1 m/S 699 mmHg 39%
    15:00 +21°C° 0 mm 1 m/S 699 mmHg 42%
    16:00 +21°C° 0 mm 1 m/S 698 mmHg 46%
    17:00 +20°C° 0 mm 1 m/S 698 mmHg 49%
    18:00 +19°C° 0 mm 1 m/S 698 mmHg 53%
    19:00 +19°C° 0 mm 1 m/S 698 mmHg 56%
    20:00 +18°C° 0 mm 1 m/S 699 mmHg 59%
    21:00 +18°C° 0 mm 1 m/S 698 mmHg 61%
    22:00 +18°C° 0 mm 1 m/S 698 mmHg 63%
    23:00 +16°C° 0 mm 1 m/S 698 mmHg 65%

    übermorgen, 21 November, Mittwoch

    Zeit Temperatur Niederschläge Wind Luftdruck Luftfeuchtigkeit
    00:00 +16°C° 0 mm 1 m/S 698 mmHg 66%
    01:00 +15°C° 0 mm 1 m/S 697 mmHg 67%
    02:00 +15°C° 0 mm 1 m/S 697 mmHg 67%
    03:00 +15°C° 0 mm 1 m/S 697 mmHg 68%
    04:00 +14°C° 0 mm 1 m/S 697 mmHg 69%
    05:00 +14°C° 0 mm 1 m/S 696 mmHg 69%
    06:00 +15°C° 0 mm 1 m/S 697 mmHg 65%
    07:00 +15°C° 0 mm 0 m/S 697 mmHg 60%
    08:00 +16°C° 0 mm 0 m/S 697 mmHg 55%
    09:00 +19°C° 0 mm 1 m/S 697 mmHg 51%
    10:00 +20°C° 0 mm 1 m/S 697 mmHg 46%
    11:00 +21°C° 0 mm 1 m/S 697 mmHg 41%
    12:00 +21°C° 0 mm 1 m/S 697 mmHg 40%
    13:00 +20°C° 0 mm 2 m/S 696 mmHg 39%
    14:00 +20°C° 0 mm 2 m/S 696 mmHg 37%
    15:00 +20°C° 0 mm 2 m/S 696 mmHg 41%
    16:00 +19°C° 0 mm 2 m/S 696 mmHg 45%
    17:00 +19°C° 0 mm 1 m/S 696 mmHg 49%
    18:00 +19°C° 0 mm 1 m/S 696 mmHg 51%
    19:00 +19°C° 0 mm 1 m/S 696 mmHg 54%
    20:00 +16°C° 0 mm 0 m/S 696 mmHg 57%
    21:00 +16°C° 0 mm 0 m/S 696 mmHg 57%
    22:00 +18°C° 0 mm 1 m/S 696 mmHg 58%
    23:00 +18°C° 0 mm 1 m/S 695 mmHg 58%

    22 November, Donnerstag

    Zeit Temperatur Niederschläge Wind Luftdruck Luftfeuchtigkeit
    00:00 +18°C° 0 mm 1 m/S 695 mmHg 57%
    01:00 +16°C° 0 mm 1 m/S 695 mmHg 57%
    02:00 +16°C° 0 mm 1 m/S 695 mmHg 56%
    03:00 +16°C° 0 mm 1 m/S 694 mmHg 56%
    04:00 +15°C° 0 mm 0 m/S 694 mmHg 56%
    05:00 +14°C° 0 mm 0 m/S 694 mmHg 56%
    06:00 +16°C° 0 mm 1 m/S 694 mmHg 53%
    07:00 +18°C° 0 mm 1 m/S 695 mmHg 50%
    08:00 +18°C° 0 mm 1 m/S 695 mmHg 47%
    09:00 +18°C° 0 mm 2 m/S 695 mmHg 42%
    10:00 +19°C° 0 mm 3 m/S 695 mmHg 37%
    11:00 +20°C° 0 mm 3 m/S 695 mmHg 32%
    12:00 +20°C° 0 mm 3 m/S 694 mmHg 31%
    13:00 +21°C° 0 mm 4 m/S 694 mmHg 31%
    14:00 +21°C° 0 mm 4 m/S 693 mmHg 30%
    15:00 +20°C° 0.1 mm 3 m/S 693 mmHg 35%
    16:00 +19°C° 0.1 mm 3 m/S 693 mmHg 41%
    17:00 +18°C° 0.1 mm 2 m/S 693 mmHg 46%
    18:00 +18°C° 0.1 mm 2 m/S 693 mmHg 49%
    19:00 +17°C° 0.1 mm 2 m/S 693 mmHg 52%
    20:00 +16°C° 0.1 mm 2 m/S 693 mmHg 56%
    21:00 +16°C° 0.1 mm 2 m/S 693 mmHg 58%
    22:00 +15°C° 0.1 mm 2 m/S 693 mmHg 60%
    23:00 +15°C° 0.1 mm 2 m/S 693 mmHg 62%

    23 November, Freitag

    Zeit Temperatur Niederschläge Wind Luftdruck Luftfeuchtigkeit
    00:00 +15°C° 0.1 mm 2 m/S 693 mmHg 65%
    01:00 +14°C° 0.1 mm 2 m/S 693 mmHg 68%
    02:00 +14°C° 0.1 mm 2 m/S 692 mmHg 70%
    03:00 +14°C° 0.2 mm 2 m/S 692 mmHg 72%
    04:00 +14°C° 0.2 mm 2 m/S 692 mmHg 74%
    05:00 +13°C° 0.2 mm 2 m/S 692 mmHg 76%
    06:00 +13°C° 0.6 mm 3 m/S 693 mmHg 75%
    07:00 +13°C° 0.6 mm 3 m/S 693 mmHg 73%
    08:00 +13°C° 0.6 mm 3 m/S 694 mmHg 72%
    09:00 +14°C° 0.2 mm 4 m/S 694 mmHg 66%
    10:00 +15°C° 0.2 mm 5 m/S 694 mmHg 61%
    11:00 +16°C° 0.2 mm 6 m/S 694 mmHg 55%
    12:00 +16°C° 0.2 mm 6 m/S 693 mmHg 55%
    13:00 +16°C° 0.2 mm 6 m/S 693 mmHg 55%
    14:00 +16°C° 0.2 mm 6 m/S 693 mmHg 54%
    15:00 +15°C° 0 mm 5 m/S 693 mmHg 57%
    16:00 +15°C° 0 mm 4 m/S 692 mmHg 61%
    17:00 +14°C° 0 mm 4 m/S 692 mmHg 64%
    18:00 +14°C° 0.2 mm 4 m/S 692 mmHg 66%
    19:00 +14°C° 0.2 mm 4 m/S 693 mmHg 68%
    20:00 +13°C° 0.2 mm 4 m/S 693 mmHg 69%
    21:00 +13°C° 0.4 mm 4 m/S 693 mmHg 70%
    22:00 +13°C° 0.4 mm 4 m/S 692 mmHg 70%
    23:00 +13°C° 0.4 mm 4 m/S 692 mmHg 70%

    24 November, Samstag

    Zeit Temperatur Niederschläge Wind Luftdruck Luftfeuchtigkeit
    00:00 +12°C° 0.4 mm 3 m/S 692 mmHg 71%
    01:00 +12°C° 0.4 mm 3 m/S 692 mmHg 71%
    02:00 +12°C° 0.4 mm 3 m/S 691 mmHg 72%
    03:00 +11°C° 0.3 mm 4 m/S 691 mmHg 72%
    04:00 +11°C° 0.3 mm 4 m/S 691 mmHg 73%
    05:00 +11°C° 0.3 mm 4 m/S 691 mmHg 73%
    06:00 +11°C° 0.2 mm 4 m/S 692 mmHg 71%
    07:00 +12°C° 0.2 mm 5 m/S 692 mmHg 70%
    08:00 +12°C° 0.2 mm 5 m/S 692 mmHg 68%
    09:00 +12°C° 0.3 mm 5 m/S 692 mmHg 66%
    10:00 +13°C° 0.3 mm 5 m/S 693 mmHg 63%
    11:00 +13°C° 0.3 mm 5 m/S 693 mmHg 61%
    12:00 +13°C° 0.5 mm 5 m/S 692 mmHg 62%
    13:00 +13°C° 0.5 mm 5 m/S 692 mmHg 62%
    14:00 +13°C° 0.5 mm 5 m/S 692 mmHg 63%
    15:00 +13°C° 0.6 mm 5 m/S 692 mmHg 65%
    16:00 +12°C° 0.6 mm 4 m/S 692 mmHg 67%
    17:00 +12°C° 0.6 mm 4 m/S 692 mmHg 69%
    18:00 +12°C° 0.7 mm 4 m/S 692 mmHg 70%
    19:00 +12°C° 0.7 mm 4 m/S 692 mmHg 71%
    20:00 +12°C° 0.7 mm 4 m/S 693 mmHg 72%
    21:00 +12°C° 0.8 mm 4 m/S 693 mmHg 73%
    22:00 +11°C° 0.8 mm 4 m/S 692 mmHg 74%
    23:00 +11°C° 0.8 mm 4 m/S 692 mmHg 76%
    Mehr zeigen